| time (UTC) | temp F | wind direction | speed MPH | gust MPH | rain 1hr in | rain 24hr in | rain mn in | humidity % | barometer mb |
| 20260905202516 | 81 | 234 | 7.0 | 8.0 | 0.00 | 0.00 | 0.00 | 56 | 1012.4 |
| 20260905201918 | 81 | 209 | 6.0 | 7.0 | 0.00 | 0.00 | 0.00 | 54 | 1012.4 |
| 20260905201318 | 81 | 263 | 3.0 | 4.0 | 0.00 | 0.00 | 0.00 | 56 | 1012.4 |
| 20260905200716 | 81 | 211 | 6.0 | 8.0 | 0.00 | 0.00 | 0.00 | 56 | 1012.4 |
| 20260905200121 | 81 | 272 | 6.0 | 7.0 | 0.00 | 0.00 | 0.00 | 57 | 1012.4 |
| 20260905195517 | 81 | 233 | 7.0 | 9.0 | 0.00 | 0.00 | 0.00 | 55 | 1012.4 |
| 20260905194917 | 80 | 243 | 4.0 | 6.0 | 0.00 | 0.00 | 0.00 | 57 | 1012.8 |
| 20260905193722 | 80 | 229 | 8.0 | 9.0 | 0.00 | 0.00 | 0.00 | 58 | 1012.8 |
| 20260905192520 | 80 | 261 | 6.0 | 7.0 | 0.00 | 0.00 | 0.00 | 59 | 1012.8 |
| 20260905191918 | 79 | 228 | 8.0 | 8.0 | 0.00 | 0.00 | 0.00 | 60 | 1012.8 |
| 20260905191317 | 79 | 228 | 6.0 | 7.0 | 0.00 | 0.00 | 0.00 | 60 | 1012.8 |
| 20260905190718 | 80 | 200 | 6.0 | 7.0 | 0.00 | 0.00 | 0.00 | 60 | 1013.1 |
| 20260905190118 | 80 | 210 | 3.0 | 4.0 | 0.00 | 0.00 | 0.00 | 61 | 1013.1 |
| 20260905185516 | 80 | 242 | 5.0 | 8.0 | 0.00 | 0.00 | 0.00 | 58 | 1013.1 |
| 20260905184921 | 79 | 242 | 5.0 | 6.0 | 0.00 | 0.00 | 0.00 | 58 | 1013.4 |
| 20260905184317 | 79 | 218 | 4.0 | 6.0 | 0.00 | 0.00 | 0.00 | 61 | 1013.4 |
| 20260905183718 | 78 | 61 | 4.0 | 4.0 | 0.00 | 0.00 | 0.00 | 64 | 1013.4 |
| 20260905183122 | 78 | 242 | 6.0 | 7.0 | 0.00 | 0.00 | 0.00 | 64 | 1013.4 |
| 20260905182517 | 77 | 216 | 5.0 | 6.0 | 0.00 | 0.00 | 0.00 | 64 | 1013.4 |
| 20260905181915 | 77 | 274 | 3.0 | 4.0 | 0.00 | 0.00 | 0.00 | 66 | 1013.4 |
| 20260905180717 | 78 | 228 | 9.0 | 10.0 | 0.00 | 0.00 | 0.00 | 62 | 1013.4 |
| 20260905180118 | 79 | 221 | 5.0 | 8.0 | 0.00 | 0.00 | 0.00 | 60 | 1013.4 |
| 20260905175519 | 81 | 161 | 5.0 | 6.0 | 0.00 | 0.00 | 0.00 | 47 | 1013.4 |
| 20260905174316 | 79 | 12 | 1.0 | 1.0 | 0.00 | 0.00 | 0.00 | 53 | 1013.4 |
| 20260905173723 | 79 | 191 | 1.0 | 2.0 | 0.00 | 0.00 | 0.00 | 54 | 1013.4 |
| 20260905173117 | 78 | 350 | 1.0 | 1.0 | 0.00 | 0.00 | 0.00 | 53 | 1013.4 |
| 20260905172517 | 78 | 154 | 3.0 | 3.0 | 0.00 | 0.00 | 0.00 | 54 | 1013.4 |
| 20260905171919 | 78 | 256 | 2.0 | 2.0 | 0.00 | 0.00 | 0.00 | 54 | 1013.4 |
| 20260905171320 | 76 | 189 | 4.0 | 4.0 | 0.00 | 0.00 | 0.00 | 58 | 1013.4 |
| 20260905170716 | 77 | 183 | 6.0 | 7.0 | 0.00 | 0.00 | 0.00 | 56 | 1013.4 |
| 20260905170121 | 77 | 241 | 1.0 | 1.0 | 0.00 | 0.00 | 0.00 | 55 | 1013.4 |
| 20260905165516 | 78 | 161 | 3.0 | 3.0 | 0.00 | 0.00 | 0.00 | 57 | 1013.4 |
| 20260905164917 | 77 | 115 | 3.0 | 3.0 | 0.00 | 0.00 | 0.00 | 56 | 1013.1 |
| 20260905164319 | 76 | 158 | 1.0 | 1.0 | 0.00 | 0.00 | 0.00 | 60 | 1013.1 |
| 20260905163717 | 76 | 153 | 2.0 | 2.0 | 0.00 | 0.00 | 0.00 | 59 | 1013.1 |
| 20260905163117 | 76 | 41 | 1.0 | 1.0 | 0.00 | 0.00 | 0.00 | 61 | 1013.1 |
| 20260905161916 | 75 | 140 | 1.0 | 2.0 | 0.00 | 0.00 | 0.00 | 62 | 1013.1 |
| 20260905160719 | 75 | 80 | 3.0 | 3.0 | 0.00 | 0.00 | 0.00 | 65 | 1013.1 |
| 20260905160118 | 75 | 92 | 3.0 | 3.0 | 0.00 | 0.00 | 0.00 | 66 | 1012.8 |
| 20260905155517 | 74 | 27 | 0.0 | 1.0 | 0.00 | 0.00 | 0.00 | 69 | 1013.1 |
| 20260905154316 | 73 | 48 | 2.0 | 3.0 | 0.00 | 0.00 | 0.00 | 73 | 1013.1 |
| 20260905153123 | 73 | 356 | 0.0 | 0.0 | 0.00 | 0.00 | 0.00 | 74 | 1012.8 |
| 20260905152517 | 72 | 40 | 1.0 | 2.0 | 0.00 | 0.00 | 0.00 | 75 | 1012.8 |
| 20260905151918 | 72 | 62 | 0.0 | 0.0 | 0.00 | 0.00 | 0.00 | 77 | 1012.8 |
| 20260905151320 | 71 | 71 | 1.0 | 1.0 | 0.00 | 0.00 | 0.00 | 77 | 1013.1 |
| 20260905150716 | 70 | 33 | 1.0 | 1.0 | 0.00 | 0.00 | 0.00 | 81 | 1013.1 |
| 20260905150117 | 68 | 357 | 0.0 | 0.0 | 0.00 | 0.00 | 0.00 | 82 | 1012.8 |
| 20260905145520 | 67 | 356 | 0.0 | 0.0 | 0.00 | 0.00 | 0.00 | 84 | 1012.8 |
| 20260905144917 | 67 | 356 | 0.0 | 0.0 | 0.00 | 0.00 | 0.00 | 84 | 1012.8 |
| 20260905144319 | 66 | 356 | 0.0 | 0.0 | 0.00 | 0.00 | 0.00 | 85 | 1012.8 |
| 20260905143720 | 66 | 356 | 1.0 | 1.0 | 0.00 | 0.00 | 0.00 | 85 | 1012.8 |
| 20260905143119 | 65 | 356 | 1.0 | 1.0 | 0.00 | 0.00 | 0.00 | 86 | 1012.4 |
| 20260905142518 | 65 | 355 | 0.0 | 0.0 | 0.00 | 0.00 | 0.00 | 87 | 1012.4 |
| 20260905141919 | 65 | 354 | 0.0 | 0.0 | 0.00 | 0.00 | 0.00 | 88 | 1012.4 |
| 20260905141318 | 64 | 345 | 1.0 | 1.0 | 0.00 | 0.00 | 0.00 | 88 | 1012.4 |
| 20260905140716 | 63 | 339 | 0.0 | 0.0 | 0.00 | 0.00 | 0.00 | 88 | 1012.4 |
| 20260905140121 | 63 | 336 | 1.0 | 1.0 | 0.00 | 0.00 | 0.00 | 88 | 1012.4 |
| 20260905135517 | 63 | 335 | 0.0 | 1.0 | 0.00 | 0.00 | 0.00 | 88 | 1012.4 |
| 20260905134917 | 64 | 335 | 0.0 | 0.0 | 0.00 | 0.00 | 0.00 | 88 | 1012.4 |
| 20260905133717 | 64 | 1 | 1.0 | 1.0 | 0.00 | 0.00 | 0.00 | 88 | 1012.1 |
| 20260905132520 | 64 | 358 | 2.0 | 2.0 | 0.00 | 0.00 | 0.00 | 89 | 1011.8 |
| 20260905131916 | 64 | 13 | 2.0 | 2.0 | 0.00 | 0.00 | 0.00 | 89 | 1011.8 |
| 20260905131317 | 64 | 3 | 1.0 | 2.0 | 0.00 | 0.00 | 0.00 | 88 | 1011.8 |
| 20260905130720 | 64 | 352 | 0.0 | 1.0 | 0.00 | 0.00 | 0.00 | 89 | 1011.8 |
| 20260905130119 | 64 | 338 | 1.0 | 1.0 | 0.00 | 0.00 | 0.00 | 88 | 1011.8 |
| 20260905125517 | 64 | 343 | 0.0 | 0.0 | 0.00 | 0.00 | 0.00 | 88 | 1011.8 |
| 20260905124920 | 64 | 340 | 0.0 | 1.0 | 0.00 | 0.00 | 0.00 | 88 | 1011.8 |
| 20260905124318 | 64 | 336 | 0.0 | 0.0 | 0.00 | 0.00 | 0.00 | 88 | 1011.8 |
| 20260905123718 | 64 | 335 | 1.0 | 1.0 | 0.00 | 0.00 | 0.00 | 88 | 1011.8 |
| 20260905123121 | 64 | 349 | 1.0 | 1.0 | 0.00 | 0.00 | 0.00 | 88 | 1011.8 |
| 20260905122523 | 64 | 354 | 2.0 | 2.0 | 0.00 | 0.00 | 0.00 | 88 | 1011.8 |
| 20260905121324 | 64 | 14 | 2.0 | 2.0 | 0.00 | 0.00 | 0.00 | 88 | 1011.8 |
| 20260905120716 | 64 | 340 | 0.0 | 1.0 | 0.00 | 0.00 | 0.00 | 88 | 1011.8 |
| 20260905120117 | 64 | 340 | 0.0 | 0.0 | 0.00 | 0.00 | 0.00 | 88 | 1011.8 |
| 20260905114919 | 64 | 344 | 1.0 | 2.0 | 0.00 | 0.00 | 0.00 | 88 | 1011.8 |
| 20260905114317 | 64 | 325 | 1.0 | 1.0 | 0.00 | 0.00 | 0.00 | 88 | 1011.8 |
| 20260905113720 | 63 | 336 | 1.0 | 1.0 | 0.00 | 0.00 | 0.00 | 88 | 1011.8 |
| 20260905113116 | 63 | 338 | 0.0 | 0.0 | 0.00 | 0.00 | 0.00 | 88 | 1011.8 |
| 20260905111923 | 64 | 336 | 0.0 | 1.0 | 0.00 | 0.00 | 0.00 | 87 | 1011.8 |
| 20260905111318 | 64 | 332 | 1.0 | 1.0 | 0.00 | 0.00 | 0.00 | 87 | 1012.1 |
| 20260905110717 | 63 | 330 | 1.0 | 1.0 | 0.00 | 0.00 | 0.00 | 87 | 1012.1 |
| 20260905110120 | 64 | 334 | 1.0 | 2.0 | 0.00 | 0.00 | 0.00 | 87 | 1012.1 |
| 20260905105518 | 64 | 335 | 0.0 | 0.0 | 0.00 | 0.00 | 0.00 | 87 | 1012.1 |
| 20260905104917 | 64 | 335 | 0.0 | 0.0 | 0.00 | 0.00 | 0.00 | 87 | 1012.1 |
| 20260905104319 | 64 | 335 | 0.0 | 0.0 | 0.00 | 0.00 | 0.00 | 87 | 1012.1 |
| 20260905103120 | 64 | 333 | 1.0 | 1.0 | 0.00 | 0.00 | 0.00 | 87 | 1012.1 |
| 20260905102520 | 64 | 338 | 0.0 | 0.0 | 0.00 | 0.00 | 0.00 | 87 | 1012.1 |
| 20260905101916 | 64 | 346 | 0.0 | 0.0 | 0.00 | 0.00 | 0.00 | 86 | 1012.1 |
| 20260905101316 | 65 | 345 | 0.0 | 0.0 | 0.00 | 0.00 | 0.00 | 86 | 1012.1 |
| 20260905100118 | 65 | 334 | 0.0 | 0.0 | 0.00 | 0.00 | 0.00 | 86 | 1012.1 |
| 20260905095517 | 65 | 359 | 3.0 | 3.0 | 0.00 | 0.00 | 0.00 | 86 | 1012.1 |
| 20260905094924 | 65 | 16 | 3.0 | 3.0 | 0.00 | 0.00 | 0.00 | 85 | 1012.1 |
| 20260905093718 | 65 | 17 | 2.0 | 3.0 | 0.00 | 0.00 | 0.00 | 85 | 1012.1 |
| 20260905093121 | 65 | 16 | 2.0 | 2.0 | 0.00 | 0.00 | 0.00 | 85 | 1012.1 |
| 20260905091320 | 65 | 338 | 1.0 | 2.0 | 0.00 | 0.00 | 0.00 | 84 | 1012.1 |
| 20260905090716 | 65 | 333 | 1.0 | 2.0 | 0.00 | 0.00 | 0.00 | 84 | 1012.1 |
| 20260905090117 | 65 | 336 | 0.0 | 1.0 | 0.00 | 0.00 | 0.00 | 83 | 1012.1 |
| 20260905085520 | 65 | 341 | 0.0 | 1.0 | 0.00 | 0.00 | 0.00 | 83 | 1012.1 |
| 20260905084917 | 65 | 343 | 1.0 | 1.0 | 0.00 | 0.00 | 0.00 | 83 | 1012.1 |
| 20260905083116 | 66 | 337 | 1.0 | 1.0 | 0.00 | 0.00 | 0.00 | 83 | 1012.4 |
| 20260905082518 | 66 | 331 | 1.0 | 1.0 | 0.00 | 0.00 | 0.00 | 83 | 1012.4 |
| 20260905081919 | 66 | 330 | 1.0 | 1.0 | 0.00 | 0.00 | 0.00 | 82 | 1012.4 |
| 20260905081319 | 66 | 339 | 1.0 | 1.0 | 0.00 | 0.00 | 0.00 | 83 | 1012.4 |
| 20260905080718 | 67 | 353 | 0.0 | 1.0 | 0.00 | 0.00 | 0.00 | 83 | 1012.4 |
| 20260905080121 | 67 | 8 | 1.0 | 1.0 | 0.00 | 0.00 | 0.00 | 83 | 1012.4 |
| 20260905074918 | 67 | 350 | 1.0 | 1.0 | 0.00 | 0.00 | 0.00 | 82 | 1012.4 |
| 20260905073718 | 67 | 17 | 3.0 | 3.0 | 0.00 | 0.00 | 0.00 | 81 | 1012.1 |
| 20260905073118 | 67 | 21 | 2.0 | 2.0 | 0.00 | 0.00 | 0.00 | 81 | 1012.4 |
| 20260905072524 | 67 | 359 | 1.0 | 1.0 | 0.00 | 0.00 | 0.00 | 81 | 1012.1 |
| 20260905071919 | 67 | 352 | 1.0 | 1.0 | 0.00 | 0.00 | 0.00 | 80 | 1012.1 |
| 20260905071319 | 67 | 5 | 1.0 | 2.0 | 0.00 | 0.00 | 0.00 | 79 | 1012.1 |
| 20260905070720 | 67 | 336 | 1.0 | 1.0 | 0.00 | 0.00 | 0.00 | 79 | 1012.4 |
| 20260905070119 | 68 | 0 | 2.0 | 2.0 | 0.00 | 0.00 | 0.00 | 80 | 1012.1 |
| 20260905065517 | 67 | 6 | 2.0 | 2.0 | 0.00 | 0.00 | 0.00 | 78 | 1012.1 |
| 20260905064924 | 67 | 354 | 1.0 | 1.0 | 0.00 | 0.00 | 0.00 | 78 | 1012.1 |
| 20260905064318 | 67 | 359 | 1.0 | 1.0 | 0.00 | 0.00 | 0.00 | 78 | 1011.8 |
| 20260905063121 | 67 | 347 | 1.0 | 1.0 | 0.00 | 0.00 | 0.00 | 79 | 1012.1 |
| 20260905062518 | 67 | 351 | 1.0 | 1.0 | 0.00 | 0.00 | 0.00 | 79 | 1012.1 |
| 20260905060719 | 67 | 336 | 0.0 | 1.0 | 0.00 | 0.00 | 0.00 | 79 | 1012.1 |
| 20260905060120 | 67 | 349 | 1.0 | 1.0 | 0.00 | 0.00 | 0.00 | 79 | 1011.8 |
| 20260905054923 | 67 | 34 | 3.0 | 3.0 | 0.00 | 0.00 | 0.00 | 79 | 1012.1 |
| 20260905054318 | 67 | 341 | 0.0 | 0.0 | 0.00 | 0.00 | 0.00 | 79 | 1011.8 |
| 20260905053721 | 68 | 322 | 1.0 | 1.0 | 0.00 | 0.00 | 0.00 | 80 | 1012.1 |
| 20260905051920 | 68 | 12 | 2.0 | 2.0 | 0.00 | 0.00 | 0.00 | 82 | 1012.1 |
| 20260905051320 | 68 | 0 | 2.0 | 2.0 | 0.00 | 0.00 | 0.00 | 82 | 1012.1 |
| 20260905050122 | 68 | 336 | 1.0 | 1.0 | 0.00 | 0.00 | 0.00 | 83 | 1012.1 |
| 20260905045519 | 68 | 9 | 2.0 | 2.0 | 0.00 | 0.00 | 0.00 | 84 | 1011.8 |
| 20260905044918 | 67 | 335 | 1.0 | 1.0 | 0.00 | 0.00 | 0.00 | 84 | 1011.8 |
| 20260905043122 | 68 | 299 | 0.0 | 1.0 | 0.00 | 0.00 | 0.00 | 86 | 1011.8 |
| 20260905042521 | 68 | 299 | 0.0 | 1.0 | 0.00 | 0.00 | 0.00 | 86 | 1011.8 |
| 20260905041918 | 68 | 299 | 0.0 | 0.0 | 0.00 | 0.00 | 0.00 | 86 | 1011.8 |
| 20260905041321 | 69 | 295 | 2.0 | 2.0 | 0.00 | 0.00 | 0.00 | 86 | 1011.4 |
| 20260905040119 | 69 | 228 | 0.0 | 0.0 | 0.00 | 0.00 | 0.00 | 86 | 1011.4 |
| 20260905035516 | 69 | 227 | 2.0 | 2.0 | 0.00 | 0.00 | 0.00 | 86 | 1011.8 |
| 20260905034922 | 69 | 275 | 1.0 | 1.0 | 0.00 | 0.00 | 0.00 | 86 | 1011.4 |
| 20260905034318 | 69 | 285 | 1.0 | 2.0 | 0.00 | 0.00 | 0.00 | 85 | 1011.4 |
| 20260905033716 | 69 | 244 | 1.0 | 1.0 | 0.00 | 0.00 | 0.00 | 85 | 1011.1 |
| 20260905033121 | 69 | 261 | 0.0 | 1.0 | 0.00 | 0.00 | 0.00 | 85 | 1011.4 |
| 20260905032518 | 69 | 266 | 0.0 | 1.0 | 0.00 | 0.00 | 0.00 | 85 | 1011.1 |
| 20260905031916 | 69 | 226 | 1.0 | 2.0 | 0.00 | 0.00 | 0.00 | 84 | 1011.1 |
| 20260905031322 | 69 | 242 | 1.0 | 2.0 | 0.00 | 0.00 | 0.00 | 84 | 1011.1 |
| 20260905030718 | 69 | 258 | 1.0 | 1.0 | 0.00 | 0.00 | 0.00 | 83 | 1010.7 |
| 20260905030122 | 69 | 248 | 2.0 | 3.0 | 0.00 | 0.00 | 0.00 | 83 | 1010.7 |
| 20260905024946 | 69 | 257 | 2.0 | 2.0 | 0.00 | 0.00 | 0.00 | 83 | 1010.7 |
| 20260905024318 | 69 | 247 | 4.0 | 6.0 | 0.00 | 0.00 | 0.00 | 83 | 1010.7 |
| 20260905023722 | 70 | 267 | 4.0 | 4.0 | 0.00 | 0.00 | 0.00 | 82 | 1010.7 |
| 20260905023119 | 70 | 260 | 4.0 | 4.0 | 0.00 | 0.00 | 0.00 | 82 | 1010.7 |
| 20260905022523 | 70 | 253 | 4.0 | 4.0 | 0.00 | 0.00 | 0.00 | 81 | 1010.7 |
| 20260905021920 | 70 | 255 | 3.0 | 3.0 | 0.00 | 0.00 | 0.00 | 80 | 1010.7 |
| 20260905021318 | 70 | 282 | 4.0 | 6.0 | 0.00 | 0.00 | 0.00 | 79 | 1011.1 |
| 20260905020719 | 71 | 274 | 4.0 | 6.0 | 0.00 | 0.00 | 0.00 | 78 | 1011.1 |
| 20260905020122 | 71 | 286 | 4.0 | 6.0 | 0.00 | 0.00 | 0.00 | 78 | 1011.1 |
| 20260905015144 | 71 | 257 | 3.0 | 10.0 | 0.00 | 0.00 | 0.00 | 77 | 1011.1 |
| 20260905014603 | 72 | 242 | 8.0 | 10.0 | 0.00 | 0.00 | 0.00 | 76 | 1011.1 |
| 20260905014104 | 71 | 259 | 2.0 | 8.0 | 0.00 | 0.00 | 0.00 | 77 | 1011.1 |
| 20260905013604 | 71 | 289 | 4.0 | 8.0 | 0.00 | 0.00 | 0.00 | 76 | 1011.1 |
| 20260905013103 | 72 | 259 | 3.0 | 9.0 | 0.00 | 0.00 | 0.00 | 76 | 1011.1 |
| 20260905012035 | 72 | 262 | 4.0 | 9.0 | 0.00 | 0.00 | 0.00 | 74 | 1011.1 |
| 20260905011003 | 72 | 205 | 6.0 | 11.0 | 0.00 | 0.00 | 0.00 | 75 | 1011.4 |
| 20260905010503 | 73 | 223 | 5.0 | 11.0 | 0.00 | 0.00 | 0.00 | 74 | 1011.4 |
| 20260905010003 | 73 | 295 | 2.0 | 11.0 | 0.00 | 0.00 | 0.00 | 74 | 1011.4 |
| 20260905004949 | 73 | 44 | 4.0 | 10.0 | 0.00 | 0.00 | 0.00 | 73 | 1011.4 |
| 20260905004449 | 73 | 237 | 5.0 | 10.0 | 0.00 | 0.00 | 0.00 | 74 | 1011.4 |
| 20260905003403 | 74 | 288 | 7.0 | 10.0 | 0.00 | 0.00 | 0.00 | 72 | 1011.4 |
| 20260905002903 | 73 | 239 | 4.0 | 11.0 | 0.00 | 0.00 | 0.00 | 73 | 1011.4 |
| 20260905002403 | 74 | 219 | 9.0 | 11.0 | 0.00 | 0.00 | 0.00 | 72 | 1011.4 |
| 20260905001903 | 73 | 244 | 4.0 | 13.0 | 0.00 | 0.00 | 0.00 | 73 | 1011.4 |
| 20260905001349 | 74 | 236 | 11.0 | 13.0 | 0.00 | 0.00 | 0.00 | 71 | 1011.4 |
| 20260905000849 | 74 | 261 | 5.0 | 11.0 | 0.00 | 0.00 | 0.00 | 72 | 1011.1 |
| 20260905000335 | 74 | 212 | 5.0 | 11.0 | 0.00 | 0.00 | 0.00 | 72 | 1011.1 |
| 20260904235823 | 74 | 225 | 9.0 | 11.0 | 0.00 | 0.00 | 0.00 | 71 | 1011.4 |
| 20260904235309 | 74 | 261 | 9.0 | 11.0 | 0.00 | 0.00 | 0.00 | 71 | 1011.4 |
| 20260904234756 | 74 | 260 | 8.0 | 14.0 | 0.00 | 0.00 | 0.00 | 71 | 1011.4 |
| 20260904234235 | 73 | 248 | 8.0 | 14.0 | 0.00 | 0.00 | 0.00 | 72 | 1011.4 |
| 20260904233730 | 73 | 182 | 5.0 | 13.0 | 0.00 | 0.00 | 0.00 | 72 | 1011.4 |
| 20260904233229 | 73 | 222 | 8.0 | 16.0 | 0.00 | 0.00 | 0.00 | 72 | 1011.4 |
| 20260904232703 | 74 | 232 | 13.0 | 16.0 | 0.00 | 0.00 | 0.00 | 70 | 1011.4 |
| 20260904232203 | 75 | 257 | 9.0 | 14.0 | 0.00 | 0.00 | 0.00 | 70 | 1011.4 |
| 20260904231705 | 75 | 230 | 8.0 | 11.0 | 0.00 | 0.00 | 0.00 | 69 | 1011.4 |
| 20260904231203 | 75 | 261 | 6.0 | 15.0 | 0.00 | 0.00 | 0.00 | 70 | 1011.4 |
| 20260904230703 | 75 | 241 | 5.0 | 15.0 | 0.00 | 0.00 | 0.00 | 70 | 1011.4 |
| 20260904230203 | 75 | 217 | 6.0 | 13.0 | 0.00 | 0.00 | 0.00 | 69 | 1011.4 |
| 20260904225155 | 74 | 225 | 6.0 | 13.0 | 0.00 | 0.00 | 0.00 | 70 | 1011.4 |
| 20260904224647 | 75 | 233 | 2.0 | 13.0 | 0.00 | 0.00 | 0.00 | 70 | 1011.8 |
| 20260904224148 | 74 | 273 | 8.0 | 11.0 | 0.00 | 0.00 | 0.00 | 70 | 1011.4 |
| 20260904223635 | 74 | 219 | 7.0 | 13.0 | 0.00 | 0.00 | 0.00 | 69 | 1011.8 |
| 20260904222558 | 75 | 221 | 9.0 | 13.0 | 0.00 | 0.00 | 0.00 | 67 | 1011.8 |
| 20260904222056 | 75 | 236 | 10.0 | 13.0 | 0.00 | 0.00 | 0.00 | 67 | 1011.8 |
| 20260904221048 | 75 | 215 | 6.0 | 13.0 | 0.00 | 0.00 | 0.00 | 69 | 1011.8 |
| 20260904220548 | 75 | 200 | 8.0 | 14.0 | 0.00 | 0.00 | 0.00 | 69 | 1011.8 |
| 20260904220034 | 75 | 256 | 7.0 | 14.0 | 0.00 | 0.00 | 0.00 | 68 | 1011.8 |
| 20260904215529 | 74 | 241 | 5.0 | 13.0 | 0.00 | 0.00 | 0.00 | 70 | 1011.8 |
| 20260904214957 | 75 | 201 | 9.0 | 13.0 | 0.00 | 0.00 | 0.00 | 70 | 1011.8 |
| 20260904214450 | 75 | 290 | 7.0 | 13.0 | 0.00 | 0.00 | 0.00 | 68 | 1011.8 |
| 20260904213936 | 76 | 221 | 9.0 | 13.0 | 0.00 | 0.00 | 0.00 | 68 | 1011.8 |
| 20260904213403 | 75 | 242 | 7.0 | 15.0 | 0.00 | 0.00 | 0.00 | 69 | 1011.8 |
| 20260904212903 | 75 | 223 | 7.0 | 15.0 | 0.00 | 0.00 | 0.00 | 69 | 1011.8 |
| 20260904211835 | 75 | 224 | 10.0 | 13.0 | 0.00 | 0.00 | 0.00 | 68 | 1012.1 |
| 20260904211304 | 75 | 222 | 5.0 | 11.0 | 0.00 | 0.00 | 0.00 | 68 | 1011.8 |
| 20260904210749 | 75 | 257 | 8.0 | 13.0 | 0.00 | 0.00 | 0.00 | 69 | 1012.1 |
| 20260904205733 | 75 | 236 | 6.0 | 11.0 | 0.00 | 0.00 | 0.00 | 67 | 1011.8 |
| 20260904205234 | 75 | 227 | 10.0 | 13.0 | 0.00 | 0.00 | 0.00 | 67 | 1011.8 |
| 20260904204704 | 75 | 176 | 6.0 | 13.0 | 0.00 | 0.00 | 0.00 | 67 | 1012.1 |
| 20260904204204 | 76 | 201 | 6.0 | 10.0 | 0.00 | 0.00 | 0.00 | 65 | 1011.8 |
| 20260904203705 | 76 | 212 | 6.0 | 11.0 | 0.00 | 0.00 | 0.00 | 65 | 1012.1 |